Погода в Джордане

Филиппины     10°39′41″N   122°35′26″E
темп.,
°C
ветер,
м/с
пор.,
м/с
влажн.,
%
обл.,
%
осадки,
мм/ч
давл.,
гПа
погр.,
м
21 апреля, ср
ср2123:00+26зюз4878100 0.0 1008453
02:00+26зюз4881100 0.0 1007402
05:00+26юз4781100 0.0 1007363
08:00+29юз686984 0.1 1009973
11:00+31юз7855100 0.0 10081383
14:00+32юз8855100 0.0 10061440
17:00+30юз676393 0.0 10061007
20:00+27юз5876100 0.1 1009540
22 апреля, чт
чт2223:00+27юз4778100 0.1 1009457
02:00+26юз4780100 0.1 1007414
05:00+26юз4781100 0.1 1007437
08:00+28юз5869100 0.1 1009920
11:00+30юз8961100 0.1 10081303
14:00+30юз796363 0.1 10061146
17:00+29юз6868100 0.1 1006912
20:00+27юз5875100 0.1 1008480
23 апреля, пт
пт2323:00+26юз5878100 0.0 1008524
02:00+26юз4778100 0.0 1007438
05:00+26юз4780100 0.0 1007404
08:00+28юз5672100 0.0 1009748
11:00+30ююз7862100 0.3 10081198
14:00+30юз7860100 0.5 10061069
17:00+29юз5764100 0.0 1006672
20:00+27юз477269 0.0 1008353
24 апреля, сб
сб2423:00+26юз477899 0.0 1009389
02:00+26юз368067 0.0 1008293
05:00+25зюз3482100 0.0 1008209
08:00+29юз3467100 0.0 1010683
11:00+30ююз5562100 0.8 10101010
14:00+31ююз445969 4.8 10071070
17:00+30юз2363100 2.6 1007794
20:00+27зсз237896 3.1 1009117
25 апреля, вс
вс2523:00+26зюз1278100 0.2 101064
02:00+25зюз1178100 0.2 100960
05:00+25ссз1179100 0.0 100945
08:00+28ссв116774 0.1 1011492
11:00+32юв125466 0.0 10101393
14:00+30ююз436251 0.1 1008830
17:00+30ю226343 0.3 1008700
20:00+27св237812 0.8 101094